When you browse on this site, cookies collect data to enhance your experience and personalize the content and advertising you see.
Visit our Privacy Policy to learn more. By continuing to use the site, you agree to this use of cookies and data.

Hourly Weather Nizhniy Tukshum

Today, 6 July, Monday

Time Temperature Precipitation Wind Pressure Humidity
00:00 +20°C° 0 mm 0 mps 750 mmHg 80%
01:00 +20°C° 0 mm 0 mps 750 mmHg 82%
02:00 +20°C° 0 mm 0 mps 750 mmHg 83%
03:00 +20°C° 0 mm 0 mps 750 mmHg 84%
04:00 +23°C° 0 mm 1 mps 750 mmHg 82%
05:00 +24°C° 0 mm 1 mps 750 mmHg 81%
06:00 +25°C° 0 mm 1 mps 750 mmHg 79%
07:00 +26°C° 0 mm 1 mps 750 mmHg 76%
08:00 +27°C° 0 mm 2 mps 750 mmHg 73%
09:00 +29°C° 0 mm 2 mps 750 mmHg 71%
10:00 +30°C° 0 mm 2 mps 750 mmHg 67%
11:00 +31°C° 0 mm 2 mps 750 mmHg 62%
12:00 +34°C° 0 mm 3 mps 750 mmHg 57%
13:00 +34°C° 0 mm 3 mps 750 mmHg 55%
14:00 +34°C° 0 mm 3 mps 750 mmHg 54%
15:00 +35°C° 0 mm 3 mps 750 mmHg 53%
16:00 +34°C° 0 mm 3 mps 750 mmHg 57%
17:00 +32°C° 0 mm 2 mps 749 mmHg 61%
18:00 +31°C° 0 mm 2 mps 749 mmHg 64%
19:00 +29°C° 0 mm 2 mps 749 mmHg 66%
20:00 +28°C° 0 mm 1 mps 750 mmHg 67%
21:00 +26°C° 0 mm 1 mps 750 mmHg 69%
22:00 +25°C° 0 mm 1 mps 750 mmHg 68%
23:00 +25°C° 0 mm 1 mps 750 mmHg 68%

Tomorrow, 7 July, Tuesday

Time Temperature Precipitation Wind Pressure Humidity
00:00 +24°C° 0 mm 1 mps 750 mmHg 67%
01:00 +22°C° 0 mm 0 mps 750 mmHg 68%
02:00 +21°C° 0 mm 0 mps 751 mmHg 70%
03:00 +21°C° 0 mm 0 mps 751 mmHg 71%
04:00 +22°C° 0 mm 0 mps 751 mmHg 70%
05:00 +23°C° 0 mm 0 mps 751 mmHg 69%
06:00 +24°C° 0 mm 0 mps 751 mmHg 68%
07:00 +26°C° 0 mm 0 mps 751 mmHg 64%
08:00 +29°C° 0 mm 1 mps 751 mmHg 61%
09:00 +30°C° 0 mm 1 mps 751 mmHg 57%
10:00 +31°C° 0 mm 1 mps 751 mmHg 54%
11:00 +32°C° 0 mm 2 mps 751 mmHg 50%
12:00 +34°C° 0 mm 2 mps 751 mmHg 46%
13:00 +35°C° 0 mm 2 mps 751 mmHg 47%
14:00 +35°C° 0 mm 2 mps 751 mmHg 47%
15:00 +35°C° 0 mm 2 mps 751 mmHg 47%
16:00 +35°C° 0 mm 2 mps 751 mmHg 51%
17:00 +33°C° 0 mm 1 mps 751 mmHg 55%
18:00 +33°C° 0 mm 1 mps 751 mmHg 59%
19:00 +30°C° 0 mm 1 mps 751 mmHg 62%
20:00 +28°C° 0 mm 1 mps 751 mmHg 64%
21:00 +26°C° 0 mm 2 mps 751 mmHg 67%
22:00 +26°C° 0 mm 2 mps 751 mmHg 68%
23:00 +25°C° 0 mm 2 mps 751 mmHg 69%

Day after tomorrow, 8 July, Wednesday

Time Temperature Precipitation Wind Pressure Humidity
00:00 +25°C° 0 mm 2 mps 751 mmHg 70%
01:00 +24°C° 0 mm 1 mps 751 mmHg 70%
02:00 +23°C° 0 mm 1 mps 751 mmHg 71%
03:00 +23°C° 0 mm 1 mps 751 mmHg 72%
04:00 +23°C° 0 mm 1 mps 751 mmHg 72%
05:00 +24°C° 0 mm 1 mps 751 mmHg 71%
06:00 +25°C° 0 mm 1 mps 752 mmHg 71%
07:00 +27°C° 0 mm 1 mps 752 mmHg 67%
08:00 +28°C° 0 mm 2 mps 752 mmHg 63%
09:00 +29°C° 0 mm 2 mps 752 mmHg 59%
10:00 +30°C° 0 mm 2 mps 752 mmHg 56%
11:00 +33°C° 0 mm 3 mps 752 mmHg 53%
12:00 +34°C° 0 mm 3 mps 752 mmHg 51%
13:00 +34°C° 0 mm 3 mps 752 mmHg 50%
14:00 +35°C° 0 mm 3 mps 751 mmHg 50%
15:00 +35°C° 0 mm 3 mps 751 mmHg 49%
16:00 +35°C° 0 mm 2 mps 751 mmHg 53%
17:00 +34°C° 0 mm 2 mps 751 mmHg 57%
18:00 +32°C° 0 mm 2 mps 751 mmHg 61%
19:00 +31°C° 0 mm 2 mps 751 mmHg 64%
20:00 +29°C° 0 mm 2 mps 751 mmHg 68%
21:00 +27°C° 0 mm 2 mps 752 mmHg 71%
22:00 +26°C° 0 mm 2 mps 752 mmHg 72%
23:00 +26°C° 0 mm 2 mps 752 mmHg 73%

9 July, Thursday

Time Temperature Precipitation Wind Pressure Humidity
00:00 +25°C° 0 mm 2 mps 752 mmHg 74%
01:00 +24°C° 0.1 mm 2 mps 752 mmHg 77%
02:00 +24°C° 0.1 mm 2 mps 752 mmHg 79%
03:00 +23°C° 0.1 mm 2 mps 752 mmHg 81%
04:00 +24°C° 0 mm 2 mps 752 mmHg 80%
05:00 +24°C° 0 mm 2 mps 752 mmHg 79%
06:00 +25°C° 0 mm 2 mps 752 mmHg 78%
07:00 +26°C° 0 mm 3 mps 752 mmHg 74%
08:00 +28°C° 0 mm 3 mps 752 mmHg 69%
09:00 +29°C° 0 mm 4 mps 752 mmHg 65%
10:00 +30°C° 0 mm 4 mps 752 mmHg 60%
11:00 +32°C° 0 mm 5 mps 752 mmHg 55%
12:00 +33°C° 0 mm 5 mps 752 mmHg 50%
13:00 +33°C° 0 mm 5 mps 751 mmHg 49%
14:00 +33°C° 0 mm 5 mps 751 mmHg 49%
15:00 +34°C° 0 mm 5 mps 751 mmHg 49%
16:00 +33°C° 0 mm 4 mps 750 mmHg 53%
17:00 +32°C° 0 mm 4 mps 750 mmHg 58%
18:00 +30°C° 0 mm 4 mps 750 mmHg 63%
19:00 +30°C° 0 mm 4 mps 749 mmHg 61%
20:00 +29°C° 0 mm 5 mps 749 mmHg 59%
21:00 +28°C° 0 mm 5 mps 749 mmHg 56%
22:00 +28°C° 0 mm 5 mps 749 mmHg 56%
23:00 +28°C° 0 mm 5 mps 748 mmHg 55%

10 July, Friday

Time Temperature Precipitation Wind Pressure Humidity
00:00 +27°C° 0 mm 5 mps 748 mmHg 55%
01:00 +27°C° 0 mm 6 mps 748 mmHg 52%
02:00 +27°C° 0 mm 6 mps 748 mmHg 50%
03:00 +27°C° 0 mm 6 mps 748 mmHg 47%
04:00 +26°C° 0 mm 4 mps 748 mmHg 55%
05:00 +25°C° 0 mm 3 mps 748 mmHg 64%
06:00 +25°C° 0 mm 1 mps 748 mmHg 72%
07:00 +25°C° 0 mm 2 mps 748 mmHg 73%
08:00 +25°C° 0 mm 3 mps 748 mmHg 74%
09:00 +25°C° 0 mm 4 mps 748 mmHg 74%
10:00 +25°C° 0.2 mm 4 mps 749 mmHg 74%
11:00 +25°C° 0.2 mm 4 mps 749 mmHg 74%
12:00 +26°C° 0.2 mm 4 mps 749 mmHg 74%
13:00 +26°C° 0.4 mm 5 mps 749 mmHg 74%
14:00 +26°C° 0.4 mm 5 mps 749 mmHg 73%
15:00 +25°C° 0.4 mm 5 mps 749 mmHg 73%
16:00 +25°C° 0.1 mm 5 mps 750 mmHg 72%
17:00 +23°C° 0.1 mm 5 mps 750 mmHg 71%
18:00 +23°C° 0.1 mm 5 mps 751 mmHg 70%
19:00 +21°C° 0 mm 5 mps 752 mmHg 72%
20:00 +19°C° 0 mm 5 mps 752 mmHg 75%
21:00 +17°C° 0 mm 5 mps 753 mmHg 77%
22:00 +16°C° 0 mm 5 mps 753 mmHg 77%
23:00 +15°C° 0 mm 4 mps 754 mmHg 78%

11 July, Saturday

Time Temperature Precipitation Wind Pressure Humidity
00:00 +13°C° 0 mm 3 mps 754 mmHg 78%
01:00 +13°C° 0 mm 3 mps 754 mmHg 80%
02:00 +13°C° 0 mm 2 mps 755 mmHg 82%
03:00 +13°C° 0 mm 1 mps 755 mmHg 84%
04:00 +14°C° 0 mm 2 mps 755 mmHg 82%
05:00 +15°C° 0 mm 2 mps 755 mmHg 80%
06:00 +16°C° 0 mm 2 mps 756 mmHg 77%
07:00 +18°C° 0 mm 3 mps 756 mmHg 72%
08:00 +20°C° 0 mm 3 mps 756 mmHg 67%
09:00 +21°C° 0 mm 4 mps 756 mmHg 62%
10:00 +22°C° 0 mm 3 mps 756 mmHg 58%
11:00 +24°C° 0 mm 3 mps 756 mmHg 53%
12:00 +25°C° 0 mm 3 mps 756 mmHg 49%
13:00 +25°C° 0 mm 3 mps 756 mmHg 48%
14:00 +25°C° 0 mm 3 mps 756 mmHg 47%
15:00 +25°C° 0 mm 2 mps 756 mmHg 46%
16:00 +25°C° 0 mm 2 mps 756 mmHg 50%
17:00 +25°C° 0 mm 2 mps 756 mmHg 55%
18:00 +24°C° 0 mm 1 mps 756 mmHg 60%
19:00 +22°C° 0 mm 1 mps 756 mmHg 64%
20:00 +20°C° 0 mm 1 mps 756 mmHg 68%
21:00 +18°C° 0 mm 1 mps 756 mmHg 72%
22:00 +16°C° 0 mm 0 mps 756 mmHg 73%
23:00 +15°C° 0 mm 0 mps 757 mmHg 74%
Show more